Weather History for Sivas, Turkey

Change the Weather History Date:

Tuesday, December 4, 2012

  Actual Average Record
Temperature  
Mean Temperature 38 °F -  
Max Temperature 46 °F 37 °F - ()
Min Temperature 30 °F 24 °F - ()
Degree Days  
Heating Degree Days 27    
Moisture  
Dew Point 32 °F    
Average Humidity 93    
Maximum Humidity 100    
Minimum Humidity 69    
Precipitation  
Precipitation 0.35 in 0.06 in - ()
Sea Level Pressure  
Sea Level Pressure 29.56 in    
Wind  
Wind Speed 10 mph ()    
Max Wind Speed 28 mph    
Max Gust Speed -    
Visibility 3.7 miles    
Events Fog , Rain , Snow    
T = Trace of Precipitation, MM = Missing Value Source: Averaged Metar Reports

Daily Weather History Graph

Daily Weather History Graph

Search for Another Location

Airport:

Trip Planner

Search our weather history database for the weather conditions in past years. The results will help you decide how hot, cold, wet, or windy it might be!

Date:

Astronomy

Dec. 04, 2012 Rise Set
Actual Time 6:37 AM EET 4:07 PM EET
Civil Twilight 6:07 AM EET 4:37 PM EET
Nautical Twilight 5:33 AM EET 5:11 PM EET
Astronomical Twilight 5:01 AM EET 5:44 PM EET
Moon 9:33 PM EET (12/4) 10:21 AM EET (12/4)
Length of Visible Light 10h 30m
Length of Day
9h 30m
Waning Gibbous, 72% of the Moon is Illuminated
Dec 4
Waning Gibbous
Dec 6
Last Quarter
Dec 13
New
Dec 20
First Quarter
Dec 28
Full

Hourly Weather History & Observations

Time (EET) Temp. Windchill Dew Point Humidity Pressure Visibility Wind Dir Wind Speed Gust Speed Precip Events Conditions
12:50 AM 32.0 °F 24.8 °F 32.0 °F 100% 29.74 in 1.9 mi SSE 8.1 mph - N/A Snow Light Snow
1:50 AM 32.0 °F 24.2 °F 32.0 °F 100% 29.71 in 6.2 mi SSE 9.2 mph - N/A   Mostly Cloudy
2:00 AM 33 °F - 31 °F 89%  in 4 mi Calm Calm - - Snow Heavy Snow
2:50 AM 32.0 °F 25.6 °F 30.2 °F 93% 29.71 in 1.9 mi SSE 6.9 mph - N/A Snow Light Snow
3:50 AM 30.2 °F 22.6 °F 30.2 °F 100% 29.68 in 1.9 mi ESE 8.1 mph - N/A Snow Light Snow
4:50 AM 30.2 °F 22.6 °F 30.2 °F 100% 29.65 in 1.9 mi ESE 8.1 mph - N/A Snow Light Snow
5:50 AM 30.2 °F 21.9 °F 30.2 °F 100% 29.62 in 0.6 mi ESE 9.2 mph - N/A Fog Light Freezing Fog
6:50 AM 32.0 °F 23.6 °F 30.2 °F 93% 29.62 in 0.4 mi ESE 10.4 mph - N/A Fog Light Freezing Fog
7:50 AM 32.0 °F 24.2 °F 32.0 °F 100% 29.62 in 3.1 mi SE 9.2 mph - N/A   Overcast
8:00 AM 35 °F - 33 °F 89%  in 9 mi NE 2.3 mph - -   Partly Cloudy
8:50 AM 33.8 °F 24.3 °F 33.8 °F 100% 29.59 in 6.2 mi SE 13.8 mph - N/A   Mostly Cloudy
9:50 AM 35.6 °F 25.9 °F 33.8 °F 93% 29.59 in 6.2 mi SE 16.1 mph - N/A   Mostly Cloudy
10:50 AM 37.4 °F 28.2 °F 32.0 °F 81% 29.56 in 6.2 mi SSE 16.1 mph - N/A   Mostly Cloudy
11:50 AM 37.4 °F 26.9 °F 32.0 °F 81% 29.50 in 6.2 mi SSE 20.7 mph - N/A   Mostly Cloudy
12:50 PM 37.4 °F 25.4 °F 33.8 °F 87% 29.47 in 6.2 mi SSE 27.6 mph - N/A Rain Light Rain Showers
1:50 PM 37.4 °F 26.1 °F 33.8 °F 87% 29.44 in 6.2 mi SSE 24.2 mph - N/A Rain Light Rain Showers
2:00 PM 43 °F - 36 °F 69%  in 6 mi SSE 5.8 mph - - Rain Light Rain
2:50 PM 35.6 °F 24.0 °F 33.8 °F 93% 29.42 in 6.2 mi SE 23.0 mph - N/A   Mostly Cloudy
3:50 PM 37.4 °F 28.2 °F 33.8 °F 87% 29.44 in 5.0 mi SSE 16.1 mph - N/A   Mostly Cloudy
4:50 PM 32.0 °F 22.1 °F 32.0 °F 100% 29.47 in 0.7 mi South 13.8 mph - N/A Rain , Snow Light Rain
6:50 PM 30.2 °F 20.8 °F 30.2 °F 100% 29.47 in 1.0 mi West 11.5 mph - N/A Snow Light Snow
7:50 PM 30.2 °F 20.2 °F 30.2 °F 100% 29.47 in 0.4 mi WSW 12.7 mph - N/A Snow Light Snow
8:00 PM 34 °F - 32 °F 88%  in 6 mi West 2.3 mph - - Snow Heavy Snow
8:50 PM 30.2 °F 20.2 °F 28.4 °F 93% 29.50 in - West 12.7 mph - N/A Snow Light Snow
9:50 PM 30.2 °F 21.3 °F 28.4 °F 93% 29.50 in 0.3 mi West 10.4 mph - N/A Snow Light Snow
10:50 PM 30.2 °F 20.2 °F 28.4 °F 93% 29.53 in 1.6 mi West 12.7 mph - N/A Snow Light Snow
11:50 PM 30.2 °F 19.8 °F 28.4 °F 93% 29.53 in 0.7 mi West 13.8 mph - N/A Snow Light Snow